I have been running with NRC and Strava for 2 years. The following table shows my running activities in 2022.


Do not stop questioning.

2022 Journey
46 Runs
126.27 KM
6:22 Avg Pace
2 day Streak
153 Avg Heart Rate

2021 Journey
60 Runs
194.13 KM
6:12 Avg Pace
3 day Streak

Total Journey
106 Runs
320.41 KM
6:17 Avg Pace
3 day Streak
153 Avg Heart Rate

KMPaceBPMTimeDate
Evening Run1.716:0516710 min2022-09-26 19:13:26
Evening Run2.036:1215212 min2022-09-06 21:25:24
Evening Run2.955:4414216 min2022-08-01 22:22:22
Evening Run3.385:4213719 min2022-07-07 21:08:41
Evening Run1.885:5115211 min2022-07-04 21:39:53
Evening Run0.775:351584 min2022-06-28 21:21:06
Evening Run3.476:1316421 min2022-06-12 21:46:40
Evening Run3.316:3421 min2022-06-12 21:46:39
Evening Run3.256:0619 min2022-06-05 19:50:39
Evening Run2.036:4213 min2022-06-03 20:42:02
Evening Run4.227:0229 min2022-05-31 20:56:47
Evening Run2.026:4413 min2022-05-29 20:59:32
Evening Run1.866:3612 min2022-05-26 20:20:08
Evening Run3.676:0722 min2022-05-24 21:01:27
Evening Run3.006:5820 min2022-05-22 21:43:51
Evening Run1.265:046 min2022-05-20 20:54:08
Evening Run2.226:2114 min2022-05-18 18:49:50
Evening Run3.066:0918 min2022-05-17 19:48:35
Evening Run2.206:2914 min2022-05-13 20:29:57
Evening Run5.626:3436 min2022-05-11 19:59:45
Evening Run3.016:5220 min2022-05-09 18:25:26
Evening Run2.306:2114 min2022-05-07 21:41:25
Evening Run2.046:2413 min2022-05-06 20:26:04
Evening Run4.037:1729 min2022-05-04 19:54:31
Evening Run2.906:5520 min2022-05-01 18:22:51
Evening Run1.815:259 min2022-04-30 19:36:02
Evening Run5.266:3434 min2022-04-27 20:24:21
Evening Run3.136:3820 min2022-04-26 19:33:12
Evening Run2.025:5712 min2022-04-24 19:29:40
Evening Run4.026:1124 min2022-04-02 18:47:06
Evening Run3.616:1722 min2022-03-31 20:57:22
Evening Run3.206:2920 min2022-03-29 21:46:43
Evening Run3.186:2120 min2022-03-14 20:40:27
Evening Run2.025:5912 min2022-03-01 22:18:50
Evening Run2.375:5714 min2022-02-23 20:39:43
Evening Run2.046:5113 min2022-02-07 22:02:10
Evening Run1.146:477 min2022-02-01 22:50:14
Evening Run1.297:219 min2022-01-26 22:14:07
Evening Run2.526:2015 min2022-01-25 19:57:06
Evening Run5.086:4234 min2022-01-23 20:27:53
Morning Run1.546:4810 min2022-01-22 08:44:14
Morning Run1.717:2012 min2022-01-20 08:37:54
Evening Run2.246:5015 min2022-01-17 20:56:26
Evening Run4.146:5328 min2022-01-16 21:53:04
Evening Run2.666:2317 min2022-01-12 21:18:10
Evening Run3.126:0919 min2022-01-11 20:17:44